| time (UTC) | temp C | wind direction | speed KPH | gust KPH | rain 1hr cm | rain 24hr cm | rain mn cm | humidity % | barometer mb |
| 20260503032954 | 2 | 75 | 0.0 | 0.0 | 0.00 | 0.00 | 0.00 | 78 | 1016.2 |
| 20260503032452 | 3 | 78 | 0.0 | 0.0 | 0.00 | 0.00 | 0.00 | 76 | 1016.3 |
| 20260503031949 | 3 | 79 | 0.0 | 0.0 | 0.00 | 0.00 | 0.00 | 78 | 1016.3 |
| 20260503031447 | 3 | 81 | 0.0 | 0.0 | 0.00 | 0.00 | 0.00 | 80 | 1016.2 |
| 20260503030943 | 3 | 95 | 0.0 | 0.0 | 0.00 | 0.00 | 0.00 | 80 | 1016.3 |
| 20260503030440 | 3 | 94 | 0.0 | 0.0 | 0.00 | 0.00 | 0.00 | 81 | 1016.2 |
| 20260503025937 | 3 | 95 | 0.0 | 0.0 | 0.00 | 0.00 | 0.00 | 82 | 1016.2 |
| 20260503025434 | 3 | 95 | 0.0 | 0.0 | 0.00 | 0.00 | 0.00 | 80 | 1016.3 |
| 20260503024932 | 2 | 95 | 0.0 | 0.0 | 0.00 | 0.00 | 0.00 | 82 | 1016.2 |
| 20260503024428 | 2 | 24 | 0.0 | 0.0 | 0.00 | 0.00 | 0.00 | 84 | 1016.3 |
| 20260503023925 | 2 | 24 | 0.0 | 1.6 | 0.00 | 0.00 | 0.00 | 84 | 1016.1 |
| 20260503023422 | 2 | 38 | 0.0 | 1.6 | 0.00 | 0.00 | 0.00 | 83 | 1016.4 |
| 20260503022919 | 2 | 37 | 0.0 | 0.0 | 0.00 | 0.00 | 0.00 | 83 | 1016.2 |
| 20260503022419 | 3 | 37 | 0.0 | 0.0 | 0.00 | 0.00 | 0.00 | 81 | 1016.3 |
| 20260503021915 | 3 | 37 | 0.0 | 0.0 | 0.00 | 0.00 | 0.00 | 82 | 1016.3 |
| 20260503021412 | 3 | 37 | 0.0 | 0.0 | 0.00 | 0.00 | 0.00 | 80 | 1016.2 |
| 20260503020909 | 3 | 37 | 0.0 | 0.0 | 0.00 | 0.00 | 0.00 | 80 | 1016.3 |
| 20260503020407 | 3 | 37 | 0.0 | 0.0 | 0.00 | 0.00 | 0.00 | 76 | 1016.3 |
| 20260503015903 | 3 | 38 | 0.0 | 0.0 | 0.00 | 0.00 | 0.00 | 76 | 1016.2 |
| 20260503015400 | 3 | 38 | 0.0 | 0.0 | 0.00 | 0.00 | 0.00 | 77 | 1016.2 |
| 20260503014856 | 4 | 38 | 0.0 | 0.0 | 0.00 | 0.00 | 0.00 | 76 | 1016.2 |
| 20260503014354 | 4 | 62 | 0.0 | 0.0 | 0.00 | 0.00 | 0.00 | 71 | 1015.9 |
| 20260503013851 | 4 | 61 | 0.0 | 0.0 | 0.00 | 0.00 | 0.00 | 70 | 1016.0 |
| 20260503013348 | 5 | 62 | 0.0 | 0.0 | 0.00 | 0.00 | 0.00 | 73 | 1015.9 |
| 20260503012845 | 4 | 62 | 0.0 | 0.0 | 0.00 | 0.00 | 0.00 | 71 | 1015.9 |
| 20260503012343 | 4 | 63 | 0.0 | 0.0 | 0.00 | 0.00 | 0.00 | 71 | 1015.9 |
| 20260503011840 | 4 | 63 | 0.0 | 0.0 | 0.00 | 0.00 | 0.00 | 74 | 1016.1 |
| 20260503011337 | 4 | 63 | 0.0 | 0.0 | 0.00 | 0.00 | 0.00 | 71 | 1016.0 |
| 20260503010833 | 4 | 63 | 0.0 | 0.0 | 0.00 | 0.00 | 0.00 | 71 | 1015.8 |
| 20260503010330 | 4 | 63 | 0.0 | 0.0 | 0.00 | 0.00 | 0.00 | 72 | 1015.7 |
| 20260503005826 | 4 | 63 | 0.0 | 0.0 | 0.00 | 0.00 | 0.00 | 68 | 1015.7 |
| 20260503005324 | 4 | 63 | 0.0 | 0.0 | 0.00 | 0.00 | 0.00 | 67 | 1015.7 |
| 20260503004820 | 5 | 63 | 0.0 | 0.0 | 0.00 | 0.00 | 0.00 | 66 | 1015.7 |
| 20260503004318 | 5 | 63 | 0.0 | 0.0 | 0.00 | 0.00 | 0.00 | 67 | 1015.7 |
| 20260503003815 | 5 | 63 | 0.0 | 0.0 | 0.00 | 0.00 | 0.00 | 64 | 1015.6 |
| 20260503003312 | 5 | 63 | 0.0 | 0.0 | 0.00 | 0.00 | 0.00 | 63 | 1015.5 |
| 20260503002809 | 5 | 62 | 0.0 | 0.0 | 0.00 | 0.00 | 0.00 | 62 | 1015.6 |
| 20260503002306 | 5 | 63 | 0.0 | 0.0 | 0.00 | 0.00 | 0.00 | 61 | 1015.3 |
| 20260503001802 | 6 | 65 | 0.0 | 0.0 | 0.00 | 0.00 | 0.00 | 60 | 1015.5 |
| 20260503001259 | 6 | 309 | 1.6 | 1.6 | 0.00 | 0.00 | 0.00 | 59 | 1015.6 |
| 20260503000756 | 6 | 299 | 0.0 | 1.6 | 0.00 | 0.00 | 0.00 | 59 | 1015.6 |
| 20260503000253 | 6 | 299 | 1.6 | 3.2 | 0.00 | 0.00 | 0.00 | 57 | 1015.1 |
| 20260502235750 | 6 | 297 | 3.2 | 4.8 | 0.00 | 0.00 | 0.00 | 56 | 1015.1 |
| 20260502235248 | 7 | 294 | 4.8 | 9.7 | 0.00 | 0.00 | 0.00 | 56 | 1015.1 |
| 20260502234744 | 7 | 292 | 6.4 | 9.7 | 0.00 | 0.00 | 0.00 | 56 | 1015.2 |
| 20260502234242 | 7 | 306 | 9.7 | 11.3 | 0.00 | 0.00 | 0.00 | 55 | 1015.1 |
| 20260502233738 | 7 | 300 | 6.4 | 16.1 | 0.00 | 0.00 | 0.00 | 55 | 1015.1 |
| 20260502233234 | 7 | 303 | 0.0 | 4.8 | 0.00 | 0.00 | 0.00 | 55 | 1014.9 |
| 20260502232730 | 7 | 298 | 6.4 | 14.5 | 0.00 | 0.00 | 0.00 | 55 | 1015.1 |
| 20260502232227 | 7 | 282 | 9.7 | 12.9 | 0.00 | 0.00 | 0.00 | 54 | 1015.1 |
| 20260502231724 | 7 | 312 | 0.0 | 4.8 | 0.00 | 0.00 | 0.00 | 53 | 1015.0 |
| 20260502231222 | 7 | 293 | 0.0 | 3.2 | 0.00 | 0.00 | 0.00 | 52 | 1014.9 |
| 20260502230721 | 7 | 324 | 3.2 | 3.2 | 0.00 | 0.00 | 0.00 | 52 | 1014.8 |
| 20260502230219 | 7 | 281 | 3.2 | 9.7 | 0.00 | 0.00 | 0.00 | 52 | 1015.0 |
| 20260502225714 | 8 | 306 | 9.7 | 16.1 | 0.00 | 0.00 | 0.00 | 50 | 1014.8 |
| 20260502225212 | 8 | 285 | 4.8 | 14.5 | 0.00 | 0.00 | 0.00 | 51 | 1014.9 |
| 20260502224707 | 7 | 306 | 6.4 | 11.3 | 0.00 | 0.00 | 0.00 | 53 | 1014.8 |
| 20260502224204 | 7 | 297 | 9.7 | 12.9 | 0.00 | 0.00 | 0.00 | 51 | 1014.7 |
| 20260502223702 | 8 | 301 | 4.8 | 9.7 | 0.00 | 0.00 | 0.00 | 50 | 1014.7 |
| 20260502223200 | 8 | 342 | 0.0 | 9.7 | 0.00 | 0.00 | 0.00 | 51 | 1014.7 |
| 20260502222657 | 8 | 285 | 4.8 | 6.4 | 0.00 | 0.00 | 0.00 | 51 | 1014.7 |
| 20260502222154 | 8 | 307 | 1.6 | 9.7 | 0.00 | 0.00 | 0.00 | 50 | 1014.8 |
| 20260502221649 | 8 | 241 | 9.7 | 12.9 | 0.00 | 0.00 | 0.00 | 50 | 1014.8 |
| 20260502221147 | 8 | 294 | 3.2 | 4.8 | 0.00 | 0.00 | 0.00 | 54 | 1014.6 |
| 20260502220643 | 8 | 303 | 11.3 | 11.3 | 0.00 | 0.00 | 0.00 | 51 | 1014.9 |
| 20260502220139 | 8 | 290 | 6.4 | 12.9 | 0.00 | 0.00 | 0.00 | 51 | 1014.7 |
| 20260502215637 | 8 | 286 | 3.2 | 4.8 | 0.00 | 0.00 | 0.00 | 52 | 1014.8 |
| 20260502215133 | 8 | 281 | 4.8 | 9.7 | 0.00 | 0.00 | 0.00 | 51 | 1014.7 |
| 20260502214630 | 8 | 300 | 0.0 | 9.7 | 0.00 | 0.00 | 0.00 | 54 | 1014.7 |
| 20260502214122 | 8 | 303 | 4.8 | 4.8 | 0.00 | 0.00 | 0.00 | 52 | 1014.6 |
| 20260502213620 | 7 | 303 | 8.0 | 9.7 | 0.00 | 0.00 | 0.00 | 53 | 1014.7 |
| 20260502213117 | 8 | 296 | 3.2 | 11.3 | 0.00 | 0.00 | 0.00 | 52 | 1014.6 |
| 20260502212616 | 8 | 341 | 1.6 | 12.9 | 0.00 | 0.00 | 0.00 | 53 | 1014.5 |
| 20260502212113 | 8 | 308 | 9.7 | 12.9 | 0.00 | 0.00 | 0.00 | 53 | 1014.5 |
| 20260502211603 | 8 | 307 | 6.4 | 11.3 | 0.00 | 0.00 | 0.00 | 51 | 1014.4 |
| 20260502211100 | 8 | 287 | 8.0 | 9.7 | 0.00 | 0.00 | 0.00 | 53 | 1014.5 |
| 20260502210557 | 8 | 303 | 6.4 | 9.7 | 0.00 | 0.00 | 0.00 | 53 | 1014.4 |
| 20260502210054 | 8 | 299 | 3.2 | 6.4 | 0.00 | 0.00 | 0.00 | 52 | 1014.4 |
| 20260502205550 | 10 | 285 | 6.4 | 11.3 | 0.00 | 0.00 | 0.00 | 50 | 1014.3 |
| 20260502205048 | 10 | 307 | 4.8 | 6.4 | 0.00 | 0.00 | 0.00 | 51 | 1014.2 |
| 20260502204544 | 9 | 276 | 3.2 | 6.4 | 0.00 | 0.00 | 0.00 | 51 | 1014.5 |
| 20260502204042 | 8 | 50 | 4.8 | 6.4 | 0.00 | 0.00 | 0.00 | 53 | 1014.5 |
| 20260502203539 | 8 | 305 | 4.8 | 6.4 | 0.00 | 0.00 | 0.00 | 53 | 1014.7 |
| 20260502203036 | 8 | 303 | 12.9 | 22.5 | 0.00 | 0.00 | 0.00 | 52 | 1014.6 |
| 20260502202532 | 8 | 333 | 3.2 | 6.4 | 0.00 | 0.00 | 0.00 | 51 | 1014.5 |
| 20260502202030 | 8 | 312 | 9.7 | 12.9 | 0.00 | 0.00 | 0.00 | 49 | 1014.4 |
| 20260502201526 | 8 | 290 | 4.8 | 11.3 | 0.00 | 0.00 | 0.00 | 52 | 1014.6 |
| 20260502201022 | 8 | 311 | 9.7 | 12.9 | 0.00 | 0.00 | 0.00 | 50 | 1014.5 |
| 20260502200518 | 8 | 311 | 9.7 | 11.3 | 0.00 | 0.00 | 0.00 | 51 | 1014.5 |
| 20260502200016 | 8 | 324 | 8.0 | 9.7 | 0.00 | 0.00 | 0.00 | 52 | 1014.8 |
| 20260502195514 | 8 | 303 | 6.4 | 6.4 | 0.00 | 0.00 | 0.00 | 51 | 1014.7 |
| 20260502195010 | 7 | 44 | 1.6 | 3.2 | 0.00 | 0.00 | 0.00 | 59 | 1014.8 |
| 20260502194507 | 8 | 296 | 4.8 | 6.4 | 0.00 | 0.00 | 0.00 | 54 | 1014.8 |
| 20260502194003 | 7 | 278 | 6.4 | 9.7 | 0.00 | 0.00 | 0.00 | 53 | 1015.0 |
| 20260502193501 | 7 | 313 | 4.8 | 6.4 | 0.00 | 0.00 | 0.00 | 55 | 1015.0 |
| 20260502192956 | 7 | 318 | 4.8 | 6.4 | 0.00 | 0.00 | 0.00 | 56 | 1015.1 |
| 20260502192452 | 7 | 301 | 0.0 | 3.2 | 0.00 | 0.00 | 0.00 | 57 | 1015.2 |
| 20260502191949 | 7 | 304 | 6.4 | 20.9 | 0.00 | 0.00 | 0.00 | 55 | 1015.0 |
| 20260502191447 | 7 | 306 | 6.4 | 11.3 | 0.00 | 0.00 | 0.00 | 54 | 1015.1 |
| 20260502190944 | 8 | 50 | 4.8 | 16.1 | 0.00 | 0.00 | 0.00 | 53 | 1015.0 |
| 20260502190441 | 9 | 15 | 1.6 | 11.3 | 0.00 | 0.00 | 0.00 | 51 | 1015.0 |
| 20260502185937 | 8 | 256 | 3.2 | 11.3 | 0.00 | 0.00 | 0.00 | 53 | 1015.1 |
| 20260502185433 | 7 | 300 | 6.4 | 14.5 | 0.00 | 0.00 | 0.00 | 54 | 1015.3 |
| 20260502184930 | 7 | 318 | 6.4 | 12.9 | 0.00 | 0.00 | 0.00 | 51 | 1015.2 |
| 20260502184425 | 7 | 299 | 4.8 | 6.4 | 0.00 | 0.00 | 0.00 | 52 | 1015.2 |
| 20260502183922 | 7 | 37 | 0.0 | 12.9 | 0.00 | 0.00 | 0.00 | 52 | 1015.2 |
| 20260502183419 | 7 | 271 | 1.6 | 12.9 | 0.00 | 0.00 | 0.00 | 54 | 1015.2 |
| 20260502182915 | 7 | 302 | 6.4 | 9.7 | 0.00 | 0.00 | 0.00 | 53 | 1015.2 |
| 20260502182410 | 8 | 267 | 8.0 | 9.7 | 0.00 | 0.00 | 0.00 | 52 | 1015.2 |
| 20260502181907 | 8 | 332 | 1.6 | 11.3 | 0.00 | 0.00 | 0.00 | 53 | 1015.1 |
| 20260502181405 | 10 | 307 | 8.0 | 14.5 | 0.00 | 0.00 | 0.00 | 49 | 1015.2 |
| 20260502180903 | 8 | 315 | 1.6 | 1.6 | 0.00 | 0.00 | 0.00 | 52 | 1015.3 |
| 20260502180359 | 8 | 306 | 6.4 | 9.7 | 0.00 | 0.00 | 0.00 | 54 | 1015.3 |
| 20260502170318 | 8 | 16 | 6.4 | 12.9 | 0.00 | 0.00 | 0.00 | 50 | 1015.6 |
| 20260502164306 | 8 | 116 | 3.2 | 9.7 | 0.00 | 0.00 | 0.00 | 52 | 1015.5 |
| 20260502163801 | 8 | 300 | 11.3 | 12.9 | 0.00 | 0.00 | 0.00 | 49 | 1015.6 |
| 20260502163258 | 9 | 322 | 3.2 | 14.5 | 0.00 | 0.00 | 0.00 | 48 | 1015.6 |
| 20260502162755 | 8 | 328 | 4.8 | 11.3 | 0.00 | 0.00 | 0.00 | 48 | 1015.7 |
| 20260502162252 | 9 | 64 | 3.2 | 11.3 | 0.00 | 0.00 | 0.00 | 50 | 1015.6 |
| 20260502161749 | 8 | 62 | 3.2 | 4.8 | 0.00 | 0.00 | 0.00 | 54 | 1015.7 |
| 20260502161245 | 8 | 11 | 6.4 | 6.4 | 0.00 | 0.00 | 0.00 | 51 | 1016.0 |
| 20260502160743 | 7 | 299 | 6.4 | 16.1 | 0.00 | 0.00 | 0.00 | 53 | 1016.0 |
| 20260502160242 | 8 | 57 | 6.4 | 11.3 | 0.00 | 0.00 | 0.00 | 54 | 1015.8 |
| 20260502152206 | 7 | 21 | 1.6 | 12.9 | 0.00 | 0.00 | 0.00 | 54 | 1015.9 |
| 20260502151704 | 7 | 288 | 3.2 | 11.3 | 0.00 | 0.00 | 0.00 | 55 | 1015.8 |
| 20260502151201 | 7 | 285 | 6.4 | 14.5 | 0.00 | 0.00 | 0.00 | 57 | 1015.7 |
| 20260502150658 | 7 | 297 | 1.6 | 4.8 | 0.00 | 0.00 | 0.00 | 55 | 1016.0 |
| 20260502150154 | 8 | 12 | 0.0 | 3.2 | 0.00 | 0.00 | 0.00 | 54 | 1016.1 |
| 20260502140118 | 7 | 292 | 9.7 | 11.3 | 0.00 | 0.00 | 0.00 | 61 | 1016.0 |
| 20260502130543 | 5 | 262 | 0.0 | 1.6 | 0.00 | 0.00 | 0.00 | 80 | 1016.0 |
| 20260502123526 | 4 | 13 | 0.0 | 0.0 | 0.00 | 0.00 | 0.00 | 82 | 1015.8 |
| 20260502123023 | 4 | 286 | 1.6 | 1.6 | 0.00 | 0.00 | 0.00 | 84 | 1015.8 |
| 20260502122519 | 3 | 292 | 0.0 | 3.2 | 0.00 | 0.00 | 0.00 | 84 | 1016.0 |
| 20260502122017 | 3 | 286 | 1.6 | 3.2 | 0.00 | 0.00 | 0.00 | 85 | 1016.2 |
| 20260502121514 | 3 | 293 | 3.2 | 4.8 | 0.00 | 0.00 | 0.00 | 86 | 1015.9 |
| 20260502121011 | 3 | 294 | 0.0 | 0.0 | 0.00 | 0.00 | 0.00 | 86 | 1015.7 |
| 20260502120508 | 3 | 286 | 0.0 | 0.0 | 0.00 | 0.00 | 0.00 | 86 | 1015.8 |
| 20260502115502 | 3 | 231 | 0.0 | 0.0 | 0.00 | 0.00 | 0.00 | 87 | 1015.8 |
| 20260502114958 | 3 | 57 | 0.0 | 0.0 | 0.00 | 0.00 | 0.00 | 88 | 1015.8 |
| 20260502114455 | 3 | 51 | 0.0 | 1.6 | 0.00 | 0.00 | 0.00 | 90 | 1015.8 |
| 20260502113952 | 2 | 295 | 0.0 | 0.0 | 0.00 | 0.00 | 0.00 | 91 | 1015.9 |
| 20260502113449 | 2 | 295 | 0.0 | 0.0 | 0.00 | 0.00 | 0.00 | 93 | 1015.6 |
| 20260502112948 | 2 | 295 | 0.0 | 0.0 | 0.00 | 0.00 | 0.00 | 94 | 1015.7 |
| 20260502112445 | 2 | 295 | 0.0 | 0.0 | 0.00 | 0.00 | 0.00 | 94 | 1015.7 |
| 20260502111943 | 2 | 295 | 0.0 | 0.0 | 0.00 | 0.00 | 0.00 | 95 | 1015.7 |
| 20260502111440 | 1 | 295 | 0.0 | 0.0 | 0.00 | 0.00 | 0.00 | 95 | 1015.7 |
| 20260502110937 | 1 | 295 | 0.0 | 0.0 | 0.00 | 0.00 | 0.00 | 95 | 1015.6 |
| 20260502110435 | 1 | 295 | 0.0 | 0.0 | 0.00 | 0.00 | 0.00 | 95 | 1015.7 |
| 20260502105931 | 1 | 295 | 0.0 | 0.0 | 0.00 | 0.00 | 0.00 | 94 | 1015.6 |
| 20260502105429 | 1 | 295 | 0.0 | 0.0 | 0.00 | 0.00 | 0.00 | 94 | 1015.3 |
| 20260502104927 | 1 | 295 | 0.0 | 0.0 | 0.00 | 0.00 | 0.00 | 94 | 1015.5 |
| 20260502104424 | 1 | 295 | 0.0 | 0.0 | 0.00 | 0.00 | 0.00 | 94 | 1015.6 |
| 20260502103921 | 1 | 295 | 0.0 | 0.0 | 0.00 | 0.00 | 0.00 | 94 | 1015.2 |
| 20260502103419 | 1 | 295 | 0.0 | 0.0 | 0.00 | 0.00 | 0.00 | 94 | 1015.5 |
| 20260502102915 | 1 | 295 | 0.0 | 0.0 | 0.00 | 0.00 | 0.00 | 94 | 1015.6 |
| 20260502102412 | 1 | 295 | 0.0 | 0.0 | 0.00 | 0.00 | 0.00 | 93 | 1015.7 |
| 20260502101910 | 1 | 295 | 0.0 | 0.0 | 0.00 | 0.00 | 0.00 | 93 | 1015.6 |
| 20260502101408 | 1 | 295 | 0.0 | 0.0 | 0.00 | 0.00 | 0.00 | 93 | 1015.9 |
| 20260502100905 | 1 | 295 | 0.0 | 0.0 | 0.00 | 0.00 | 0.00 | 93 | 1015.7 |
| 20260502100405 | 1 | 295 | 0.0 | 0.0 | 0.00 | 0.00 | 0.00 | 93 | 1015.6 |
| 20260502091338 | 2 | 295 | 0.0 | 0.0 | 0.00 | 0.00 | 0.00 | 88 | 1015.9 |
| 20260502090836 | 2 | 295 | 0.0 | 0.0 | 0.00 | 0.00 | 0.00 | 88 | 1015.9 |
| 20260502090332 | 2 | 295 | 0.0 | 0.0 | 0.00 | 0.00 | 0.00 | 87 | 1015.7 |
| 20260502071228 | 4 | 261 | 0.0 | 0.0 | 0.00 | 0.00 | 0.00 | 75 | 1015.6 |
| 20260502070726 | 4 | 261 | 0.0 | 0.0 | 0.00 | 0.00 | 0.00 | 74 | 1015.8 |
| 20260502070223 | 5 | 261 | 0.0 | 0.0 | 0.00 | 0.00 | 0.00 | 74 | 1015.7 |
| 20260502065721 | 5 | 261 | 0.0 | 0.0 | 0.00 | 0.00 | 0.00 | 74 | 1016.0 |
| 20260502065219 | 5 | 261 | 0.0 | 0.0 | 0.00 | 0.00 | 0.00 | 74 | 1015.7 |
| 20260502064717 | 5 | 265 | 0.0 | 1.6 | 0.00 | 0.00 | 0.00 | 73 | 1015.7 |
| 20260502064215 | 5 | 0 | 1.6 | 3.2 | 0.00 | 0.00 | 0.00 | 73 | 1015.7 |
| 20260502063712 | 5 | 278 | 0.0 | 0.0 | 0.00 | 0.00 | 0.00 | 72 | 1015.6 |
| 20260502063210 | 5 | 268 | 0.0 | 1.6 | 0.00 | 0.00 | 0.00 | 72 | 1015.8 |
| 20260502062706 | 5 | 268 | 0.0 | 1.6 | 0.00 | 0.00 | 0.00 | 72 | 1016.0 |
| 20260502062204 | 5 | 299 | 0.0 | 1.6 | 0.00 | 0.00 | 0.00 | 72 | 1015.9 |
| 20260502061703 | 5 | 10 | 1.6 | 4.8 | 0.00 | 0.00 | 0.00 | 72 | 1015.9 |
| 20260502061159 | 5 | 45 | 0.0 | 0.0 | 0.00 | 0.00 | 0.00 | 73 | 1016.1 |
| 20260502060655 | 5 | 12 | 0.0 | 0.0 | 0.00 | 0.00 | 0.00 | 72 | 1016.2 |
| 20260502060151 | 5 | 254 | 0.0 | 1.6 | 0.00 | 0.00 | 0.00 | 72 | 1016.2 |
| 20260502055649 | 5 | 67 | 0.0 | 0.0 | 0.00 | 0.00 | 0.00 | 73 | 1015.8 |
| 20260502055147 | 5 | 67 | 0.0 | 0.0 | 0.00 | 0.00 | 0.00 | 74 | 1016.1 |
| 20260502054646 | 5 | 67 | 0.0 | 0.0 | 0.00 | 0.00 | 0.00 | 73 | 1015.9 |
| 20260502054143 | 5 | 278 | 1.6 | 1.6 | 0.00 | 0.00 | 0.00 | 74 | 1015.9 |
| 20260502053640 | 5 | 290 | 0.0 | 1.6 | 0.00 | 0.00 | 0.00 | 73 | 1015.9 |
| 20260502053137 | 6 | 279 | 0.0 | 0.0 | 0.00 | 0.00 | 0.00 | 73 | 1016.1 |
| 20260502052635 | 6 | 299 | 0.0 | 3.2 | 0.00 | 0.00 | 0.00 | 73 | 1016.2 |
| 20260502052133 | 6 | 99 | 0.0 | 4.8 | 0.00 | 0.00 | 0.00 | 73 | 1016.2 |
| 20260502051631 | 6 | 301 | 1.6 | 1.6 | 0.00 | 0.00 | 0.00 | 72 | 1016.0 |
| 20260502051129 | 6 | 306 | 0.0 | 1.6 | 0.00 | 0.00 | 0.00 | 71 | 1016.2 |
| 20260502050625 | 6 | 322 | 0.0 | 4.8 | 0.00 | 0.00 | 0.00 | 71 | 1016.2 |
| 20260502050122 | 6 | 281 | 3.2 | 9.7 | 0.00 | 0.00 | 0.00 | 72 | 1016.3 |
| 20260502045618 | 6 | 68 | 1.6 | 3.2 | 0.00 | 0.00 | 0.00 | 74 | 1016.1 |
| 20260502045115 | 6 | 297 | 1.6 | 1.6 | 0.00 | 0.00 | 0.00 | 74 | 1016.2 |
| 20260502044612 | 6 | 305 | 8.0 | 9.7 | 0.00 | 0.00 | 0.00 | 74 | 1016.2 |
| 20260502044109 | 6 | 159 | 6.4 | 6.4 | 0.00 | 0.00 | 0.00 | 74 | 1016.2 |
| 20260502043606 | 6 | 287 | 3.2 | 4.8 | 0.00 | 0.00 | 0.00 | 75 | 1016.3 |
| 20260502043103 | 6 | 301 | 4.8 | 4.8 | 0.00 | 0.00 | 0.00 | 76 | 1016.0 |
| 20260502042602 | 6 | 44 | 3.2 | 6.4 | 0.00 | 0.00 | 0.00 | 77 | 1016.2 |
| 20260502042100 | 7 | 214 | 4.8 | 6.4 | 0.00 | 0.00 | 0.00 | 78 | 1016.1 |
| 20260502041558 | 7 | 308 | 8.0 | 11.3 | 0.00 | 0.00 | 0.00 | 77 | 1016.1 |
| 20260502041054 | 7 | 267 | 3.2 | 11.3 | 0.00 | 0.00 | 0.00 | 78 | 1016.1 |
| 20260502040551 | 7 | 357 | 1.6 | 6.4 | 0.00 | 0.00 | 0.00 | 79 | 1016.1 |
| 20260502040048 | 7 | 294 | 6.4 | 6.4 | 0.00 | 0.00 | 0.00 | 79 | 1016.0 |
| 20260502035544 | 7 | 22 | 0.0 | 6.4 | 0.00 | 0.00 | 0.00 | 79 | 1016.1 |
| 20260502035042 | 7 | 317 | 3.2 | 9.7 | 0.00 | 0.00 | 0.00 | 80 | 1016.0 |
| 20260502034540 | 7 | 214 | 0.0 | 4.8 | 0.00 | 0.00 | 0.00 | 80 | 1016.1 |
| 20260502034038 | 7 | 299 | 4.8 | 6.4 | 0.00 | 0.00 | 0.00 | 79 | 1016.0 |
| 20260502033536 | 7 | 292 | 1.6 | 3.2 | 0.00 | 0.00 | 0.00 | 79 | 1016.1 |